MYTBM LOWS-EDNY

Flight info

Callsign MYTBM
Flight time 0h 46m
Altitude 26000
Route TRAUN L856 KPT KPT1F
Aircraft TBM8/L-SDFGRWY/S

Departure

Time 2026-04-21 14:23
Airport Salzburg Airport (LOWS)

Arrival

Time 2026-04-21 15:09
Airport Bodensee Airport Friedrichshafen (EDNY)
Time Latitude Longitude Altitude Speed Heading
2026-04-21 14:12 47.79509 12.99768 1415 ft 0 kts 337°
2026-04-21 14:18 47.79517 12.99763 1415 ft 5 kts 336°
2026-04-21 14:18 47.79537 12.99791 1415 ft 8 kts 70°
2026-04-21 14:18 47.79542 12.99854 1415 ft 4 kts 107°
2026-04-21 14:19 47.79550 12.99905 1415 ft 7 kts 68°
2026-04-21 14:19 47.79542 12.99986 1415 ft 12 kts 142°
2026-04-21 14:19 47.79451 13.00050 1415 ft 18 kts 158°
2026-04-21 14:19 47.79322 13.00132 1415 ft 23 kts 156°
2026-04-21 14:20 47.79171 13.00229 1415 ft 23 kts 157°
2026-04-21 14:20 47.79037 13.00314 1414 ft 19 kts 156°
2026-04-21 14:20 47.78952 13.00368 1414 ft 20 kts 157°
2026-04-21 14:20 47.78812 13.00459 1414 ft 25 kts 157°
2026-04-21 14:21 47.78658 13.00553 1414 ft 19 kts 159°
2026-04-21 14:21 47.78578 13.00604 1414 ft 9 kts 158°
2026-04-21 14:21 47.78529 13.00672 1414 ft 11 kts 94°
2026-04-21 14:21 47.78548 13.00782 1414 ft 11 kts 68°
2026-04-21 14:22 47.78579 13.00868 1417 ft 5 kts 342°
2026-04-21 14:22 47.78586 13.00864 1416 ft 6 kts 335°
2026-04-21 14:22 47.78789 13.00738 1415 ft 58 kts 337°
2026-04-21 14:22 47.79305 13.00409 1437 ft 99 kts 342°
2026-04-21 14:23 47.79984 12.99993 1687 ft 115 kts 341°
2026-04-21 14:23 47.80777 12.99520 2016 ft 129 kts 341°
2026-04-21 14:23 47.81574 12.98987 2633 ft 123 kts 340°
2026-04-21 14:23 47.82343 12.98400 3181 ft 128 kts 320°
2026-04-21 14:24 47.82790 12.97228 3739 ft 132 kts 302°
2026-04-21 14:24 47.83260 12.96055 4319 ft 132 kts 304°
2026-04-21 14:24 47.83721 12.94860 4857 ft 134 kts 303°
2026-04-21 14:24 47.84189 12.93658 5351 ft 134 kts 305°
2026-04-21 14:25 47.84653 12.92458 5834 ft 134 kts 303°
2026-04-21 14:25 47.85119 12.91255 6335 ft 134 kts 303°
2026-04-21 14:25 47.85588 12.90039 6796 ft 136 kts 302°
2026-04-21 14:25 47.86060 12.88819 7264 ft 136 kts 301°
2026-04-21 14:26 47.86524 12.87617 7757 ft 134 kts 301°
2026-04-21 14:26 47.86990 12.86414 8226 ft 135 kts 300°
2026-04-21 14:26 47.87457 12.85197 8704 ft 134 kts 300°
2026-04-21 14:26 47.87920 12.84004 9208 ft 132 kts 298°
2026-04-21 14:27 47.88379 12.82812 9690 ft 132 kts 298°
2026-04-21 14:27 47.88838 12.81617 10125 ft 133 kts 298°
2026-04-21 14:27 47.89303 12.80415 10540 ft 134 kts 298°
2026-04-21 14:27 47.89772 12.79195 10921 ft 138 kts 299°
2026-04-21 14:28 47.90251 12.77952 11329 ft 138 kts 299°
2026-04-21 14:28 47.90727 12.76707 11713 ft 141 kts 299°
2026-04-21 14:28 47.91210 12.75451 12179 ft 139 kts 298°
2026-04-21 14:28 47.91682 12.74173 12576 ft 141 kts 299°
2026-04-21 14:29 47.92169 12.72883 12978 ft 144 kts 298°
2026-04-21 14:29 47.92662 12.71578 13427 ft 144 kts 299°
2026-04-21 14:29 47.93161 12.70247 13787 ft 150 kts 299°
2026-04-21 14:29 47.93675 12.68881 14172 ft 151 kts 299°
2026-04-21 14:30 47.94189 12.67506 14542 ft 152 kts 299°
2026-04-21 14:30 47.94706 12.66126 14920 ft 153 kts 299°
2026-04-21 14:30 47.95224 12.64743 15305 ft 153 kts 299°
2026-04-21 14:30 47.95734 12.63377 15706 ft 153 kts 300°
2026-04-21 14:31 47.96258 12.61976 16073 ft 155 kts 300°
2026-04-21 14:31 47.96787 12.60564 16446 ft 156 kts 299°
2026-04-21 14:31 47.97306 12.59130 16836 ft 157 kts 294°
2026-04-21 14:31 47.97359 12.57524 17256 ft 159 kts 263°
2026-04-21 14:32 47.97194 12.55894 17571 ft 162 kts 265°
2026-04-21 14:32 47.97050 12.54222 17959 ft 162 kts 265°
2026-04-21 14:32 47.96896 12.52551 18330 ft 163 kts 265°
2026-04-21 14:32 47.96740 12.50870 18641 ft 164 kts 265°
2026-04-21 14:33 47.96584 12.49176 18957 ft 165 kts 265°
2026-04-21 14:33 47.96426 12.47475 19279 ft 166 kts 265°
2026-04-21 14:33 47.96268 12.45766 19595 ft 166 kts 265°
2026-04-21 14:33 47.96109 12.44054 19920 ft 166 kts 265°
2026-04-21 14:34 47.95950 12.42340 20236 ft 167 kts 265°
2026-04-21 14:34 47.95790 12.40619 20547 ft 168 kts 265°
2026-04-21 14:34 47.95629 12.38890 20859 ft 168 kts 265°
2026-04-21 14:34 47.95469 12.37179 21166 ft 169 kts 265°
2026-04-21 14:35 47.95307 12.35440 21472 ft 169 kts 265°
2026-04-21 14:35 47.95143 12.33696 21783 ft 170 kts 265°
2026-04-21 14:35 47.94978 12.31933 22033 ft 174 kts 265°
2026-04-21 14:35 47.94811 12.30135 22319 ft 175 kts 265°
2026-04-21 14:36 47.94634 12.28331 22634 ft 176 kts 265°
2026-04-21 14:36 47.94462 12.26526 22945 ft 176 kts 266°
2026-04-21 14:36 47.94295 12.24701 23197 ft 180 kts 265°
2026-04-21 14:36 47.94123 12.22837 23482 ft 182 kts 265°
2026-04-21 14:37 47.93944 12.20969 23783 ft 182 kts 265°
2026-04-21 14:37 47.93765 12.19096 24038 ft 183 kts 265°
2026-04-21 14:37 47.93585 12.17237 24288 ft 183 kts 265°
2026-04-21 14:37 47.93404 12.15356 24539 ft 184 kts 265°
2026-04-21 14:38 47.93221 12.13462 24752 ft 186 kts 265°
2026-04-21 14:38 47.93036 12.11537 24975 ft 188 kts 265°
2026-04-21 14:38 47.92847 12.09608 25214 ft 188 kts 265°
2026-04-21 14:38 47.92659 12.07675 25444 ft 189 kts 265°
2026-04-21 14:39 47.92470 12.05733 25680 ft 189 kts 265°
2026-04-21 14:39 47.92281 12.03791 25916 ft 189 kts 265°
2026-04-21 14:39 47.92090 12.01840 26102 ft 193 kts 265°
2026-04-21 14:39 47.91896 11.99802 26111 ft 205 kts 265°
2026-04-21 14:40 47.91689 11.97646 26120 ft 216 kts 265°
2026-04-21 14:40 47.91469 11.95406 26119 ft 226 kts 265°
2026-04-21 14:40 47.91233 11.93029 26118 ft 236 kts 265°
2026-04-21 14:40 47.90991 11.90570 26117 ft 244 kts 265°
2026-04-21 14:41 47.90739 11.88024 26120 ft 252 kts 265°
2026-04-21 14:41 47.90481 11.85411 26120 ft 258 kts 265°
2026-04-21 14:41 47.90214 11.82736 26117 ft 264 kts 265°
2026-04-21 14:41 47.89942 11.79994 26117 ft 269 kts 265°
2026-04-21 14:42 47.89665 11.77213 26115 ft 273 kts 265°
2026-04-21 14:42 47.89391 11.74431 26114 ft 276 kts 265°
2026-04-21 14:42 47.89110 11.71591 26117 ft 279 kts 264°
2026-04-21 14:42 47.88822 11.68715 26118 ft 282 kts 264°
2026-04-21 14:43 47.88533 11.65814 26108 ft 284 kts 264°
2026-04-21 14:43 47.88241 11.62895 26109 ft 286 kts 264°
2026-04-21 14:43 47.87945 11.59956 26115 ft 287 kts 264°
2026-04-21 14:43 47.87647 11.57007 26113 ft 288 kts 264°
2026-04-21 14:44 47.87349 11.54045 26113 ft 289 kts 264°
2026-04-21 14:44 47.87052 11.51114 26115 ft 290 kts 264°
2026-04-21 14:44 47.86750 11.48135 26116 ft 291 kts 264°
2026-04-21 14:44 47.86446 11.45153 26095 ft 292 kts 264°
2026-04-21 14:45 47.86142 11.42170 26104 ft 292 kts 264°
2026-04-21 14:45 47.85836 11.39183 26104 ft 292 kts 264°
2026-04-21 14:45 47.85529 11.36194 26105 ft 292 kts 264°
2026-04-21 14:45 47.85222 11.33204 26105 ft 292 kts 264°
2026-04-21 14:46 47.84911 11.30207 26103 ft 292 kts 264°
2026-04-21 14:46 47.84602 11.27217 26102 ft 292 kts 264°
2026-04-21 14:46 47.84291 11.24227 26086 ft 292 kts 264°
2026-04-21 14:46 47.83979 11.21232 26087 ft 293 kts 264°
2026-04-21 14:47 47.83670 11.18269 26089 ft 293 kts 264°
2026-04-21 14:47 47.83357 11.15279 26088 ft 293 kts 264°
2026-04-21 14:47 47.83042 11.12280 26089 ft 293 kts 264°
2026-04-21 14:47 47.82727 11.09285 26090 ft 293 kts 264°
2026-04-21 14:48 47.82409 11.06290 26092 ft 293 kts 264°
2026-04-21 14:48 47.82088 11.03293 26093 ft 293 kts 264°
2026-04-21 14:48 47.81770 11.00304 26095 ft 293 kts 264°
2026-04-21 14:48 47.81449 10.97313 26095 ft 293 kts 264°
2026-04-21 14:49 47.81128 10.94320 26081 ft 293 kts 264°
2026-04-21 14:49 47.80808 10.91358 26081 ft 293 kts 264°
2026-04-21 14:49 47.80485 10.88360 26080 ft 294 kts 264°
2026-04-21 14:49 47.80161 10.85360 26080 ft 293 kts 264°
2026-04-21 14:50 47.79941 10.83335 26080 ft 293 kts 264°
2026-04-21 14:50 47.79509 10.79365 26077 ft 293 kts 264°
2026-04-21 14:50 47.79181 10.76360 26077 ft 293 kts 264°
2026-04-21 14:50 47.78857 10.73398 26077 ft 293 kts 264°
2026-04-21 14:51 47.78530 10.70398 26081 ft 294 kts 264°
2026-04-21 14:51 47.78200 10.67397 26080 ft 294 kts 264°
2026-04-21 14:51 47.77865 10.64354 25737 ft 304 kts 264°
2026-04-21 14:51 47.77519 10.61202 25314 ft 312 kts 263°
2026-04-21 14:52 47.77165 10.58013 24885 ft 313 kts 263°
2026-04-21 14:52 47.76807 10.54794 24473 ft 317 kts 263°
2026-04-21 14:52 47.76449 10.51559 24068 ft 320 kts 263°
2026-04-21 14:52 47.76085 10.48293 23661 ft 321 kts 263°
2026-04-21 14:53 47.75717 10.45002 23185 ft 324 kts 262°
2026-04-21 14:53 47.75345 10.41706 22696 ft 322 kts 263°
2026-04-21 14:53 47.74977 10.38412 22191 ft 322 kts 263°
2026-04-21 14:53 47.74622 10.35179 21711 ft 321 kts 265°
2026-04-21 14:54 47.74533 10.31860 21235 ft 323 kts 272°
2026-04-21 14:54 47.74528 10.28542 20769 ft 321 kts 271°
2026-04-21 14:54 47.74483 10.25209 20301 ft 324 kts 270°
2026-04-21 14:54 47.74421 10.21860 19844 ft 322 kts 271°
2026-04-21 14:55 47.74376 10.18548 19393 ft 322 kts 271°
2026-04-21 14:55 47.74336 10.15219 18950 ft 321 kts 271°
2026-04-21 14:55 47.74292 10.11951 18515 ft 320 kts 271°
2026-04-21 14:55 47.74241 10.08646 18034 ft 320 kts 270°
2026-04-21 14:56 47.74187 10.05352 17538 ft 318 kts 270°
2026-04-21 14:56 47.74137 10.02070 17050 ft 317 kts 270°
2026-04-21 14:56 47.74086 9.98812 16574 ft 314 kts 270°
2026-04-21 14:56 47.74037 9.95577 16104 ft 312 kts 270°
2026-04-21 14:57 47.73980 9.92371 15640 ft 308 kts 270°
2026-04-21 14:57 47.73925 9.89199 15187 ft 305 kts 270°
2026-04-21 14:57 47.73876 9.86090 14762 ft 298 kts 270°
2026-04-21 14:57 47.73862 9.85214 14641 ft 296 kts 270°
2026-04-21 14:58 47.73805 9.82145 14213 ft 290 kts 270°
2026-04-21 14:58 47.73744 9.79211 13793 ft 286 kts 270°
2026-04-21 14:58 47.73694 9.76281 13330 ft 282 kts 270°
2026-04-21 14:58 47.73648 9.73374 12872 ft 279 kts 269°
2026-04-21 14:59 47.73588 9.70506 12421 ft 277 kts 269°
2026-04-21 14:59 47.73535 9.67666 11976 ft 273 kts 269°
2026-04-21 14:59 47.73487 9.64853 11540 ft 272 kts 269°
2026-04-21 14:59 47.73429 9.62050 11108 ft 271 kts 269°
2026-04-21 15:00 47.73373 9.59252 10679 ft 270 kts 269°
2026-04-21 15:00 47.73319 9.56501 10364 ft 267 kts 268°
2026-04-21 15:00 47.73262 9.53736 10066 ft 264 kts 268°
2026-04-21 15:00 47.73204 9.51012 9747 ft 263 kts 268°
2026-04-21 15:01 47.73152 9.48306 9423 ft 261 kts 268°
2026-04-21 15:01 47.73017 9.45622 9092 ft 260 kts 258°
2026-04-21 15:01 47.72516 9.43161 8760 ft 231 kts 252°
2026-04-21 15:01 47.71995 9.41031 8442 ft 221 kts 250°
2026-04-21 15:02 47.71503 9.38864 8123 ft 222 kts 253°
2026-04-21 15:02 47.71063 9.36644 7813 ft 226 kts 255°
2026-04-21 15:02 47.70617 9.34400 7562 ft 228 kts 254°
2026-04-21 15:02 47.70153 9.32141 7304 ft 230 kts 253°
2026-04-21 15:03 47.69520 9.29984 6940 ft 226 kts 240°
2026-04-21 15:03 47.68709 9.27995 6590 ft 223 kts 239°
2026-04-21 15:03 47.67919 9.26021 6221 ft 223 kts 240°
2026-04-21 15:03 47.66929 9.24271 5848 ft 224 kts 212°
2026-04-21 15:04 47.65471 9.23691 5551 ft 216 kts 173°
2026-04-21 15:04 47.64054 9.24301 5290 ft 210 kts 155°
2026-04-21 15:04 47.62711 9.25127 5082 ft 208 kts 154°
2026-04-21 15:04 47.61365 9.25957 4876 ft 211 kts 154°
2026-04-21 15:05 47.60068 9.26931 4653 ft 206 kts 135°
2026-04-21 15:05 47.59363 9.30666 4221 ft 192 kts 73°
2026-04-21 15:05 47.59906 9.32457 4019 ft 190 kts 61°
2026-04-21 15:06 47.60526 9.34155 3917 ft 186 kts 60°
2026-04-21 15:06 47.61161 9.35798 3668 ft 185 kts 58°
2026-04-21 15:06 47.61809 9.37442 3419 ft 182 kts 59°
2026-04-21 15:06 47.62430 9.39048 3171 ft 177 kts 59°
2026-04-21 15:07 47.63045 9.40614 2916 ft 174 kts 59°
2026-04-21 15:07 47.63640 9.42166 2671 ft 170 kts 60°
2026-04-21 15:07 47.64202 9.43613 2440 ft 154 kts 58°
2026-04-21 15:07 47.64716 9.44935 2208 ft 144 kts 59°
2026-04-21 15:08 47.65033 9.45752 2067 ft 132 kts 58°
2026-04-21 15:08 47.65459 9.46851 1885 ft 112 kts 57°
2026-04-21 15:08 47.65889 9.47961 1723 ft 86 kts 54°
2026-04-21 15:08 47.66177 9.48723 1621 ft 85 kts 54°
2026-04-21 15:09 47.66388 9.49232 1535 ft 85 kts 53°
2026-04-21 15:09 47.66669 9.49955 1393 ft 80 kts 55°
2026-04-21 15:09 47.66928 9.50629 1348 ft 64 kts 58°
2026-04-21 15:09 47.67105 9.51072 1353 ft 33 kts 60°
2026-04-21 15:10 47.67137 9.51223 1356 ft 8 kts 137°
2026-04-21 15:10 47.67083 9.51292 1353 ft 12 kts 142°
2026-04-21 15:10 47.67037 9.51353 1354 ft 8 kts 110°
2026-04-21 15:10 47.67060 9.51436 1355 ft 10 kts 60°
2026-04-21 15:11 47.67103 9.51546 1357 ft 14 kts 59°
2026-04-21 15:11 47.67163 9.51699 1358 ft 19 kts 62°
2026-04-21 15:11 47.67221 9.51854 1360 ft 16 kts 59°
2026-04-21 15:11 47.67275 9.51993 1361 ft 16 kts 60°
2026-04-21 15:12 47.67329 9.52134 1362 ft 15 kts 58°
2026-04-21 15:12 47.67389 9.52285 1362 ft 14 kts 59°
2026-04-21 15:12 47.67408 9.52336 1363 ft 2 kts 60°
2026-04-21 15:12 47.67417 9.52390 1363 ft 6 kts 109°
2026-04-21 15:13 47.67412 9.52436 1363 ft 5 kts 73°
2026-04-21 15:13 47.67416 9.52472 1363 ft 0 kts 152°